QPF
0.00 0.00 0.00 0.00 0.01 0.00 0.00 0.00 0.00 0.00 0.00 0.00 0.01 0.01 0.00 0.00 0.00 0.01 0.01 0.03 0.04 0.02 0.00 0.00 0.00 0.01 0.01 0.01 0.02 0.01 0.01 0.01 0.00 0.03 0.02 0.01 0.01 0.01 0.01 0.00 0.00 0.00 0.01 0.02 0.01 0.01 0.00 0.00 0.00 0.00 0.01 0.00 0.00 0.00
0.00 0.00 0.00 0.00 0.00 0.01 0.00 0.00 0.00 0.00 0.00 0.00 0.01 0.01 0.01 0.01 0.00 0.03 0.02 0.01 0.04 0.05 0.01 0.00 0.00 0.00 0.00 0.00 0.01 0.00 0.01 0.00 0.01 0.03 0.02 0.03 0.02 0.02 0.01 0.01 0.00 0.00 0.00 0.00 0.00 0.00 0.00 0.00 0.00 0.00 0.00 0.00 0.00 0.00
0.00 0.00 0.00 0.00 0.00 0.00 0.00 0.00 0.00 0.00 0.00 0.00 0.00 0.00 0.01 0.01 0.00 0.04 0.03 0.01 0.03 0.04 0.01 0.00 0.00 0.00 0.00 0.00 0.01 0.01 0.00 0.00 0.00 0.02 0.04 0.03 0.02 0.01 0.01 0.01 0.01 0.00 0.01 0.01 0.02 0.00 0.02 0.01 0.00 0.00 0.00 0.00 0.00 0.00
0.00 0.00 0.00 0.00 0.00 0.00 0.01 0.00 0.00 0.00 0.00 0.00 0.00 0.00 0.04 0.05 0.03 0.06 0.05 0.02 0.04 0.04 0.02 0.00 0.00 0.00 0.00 0.00 0.00 0.00 0.00 0.00 0.01 0.03 0.05 0.03 0.03 0.01 0.02 0.01 0.01 0.01 0.02 0.01 0.01 0.01 0.03 0.00 0.00 0.00 0.00 0.00 0.00 0.00
0.00 0.00 0.00 0.01 0.00 0.01 0.01 0.01 0.01 0.01 0.00 0.00 0.00 0.00 0.06 0.07 0.06 0.08 0.06 0.04 0.05 0.04 0.01 0.00 0.00 0.00 0.00 0.00 0.00 0.00 0.01 0.00 0.01 0.01 0.02 0.02 0.02 0.01 0.01 0.01 0.00 0.00 0.00 0.00 0.00 0.00 0.01 0.00 0.00 0.00 0.00 0.00 0.00 0.00
0.00 0.00 0.00 0.00 0.01 0.01 0.01 0.01 0.02 0.01 0.00 0.00 0.00 0.01 0.05 0.05 0.06 0.09 0.05 0.02 0.02 0.05 0.04 0.01 0.00 0.00 0.00 0.00 0.01 0.00 0.00 0.00 0.00 0.01 0.02 0.01 0.00 0.01 0.00 0.00 0.00 0.00 0.00 0.00 0.00 0.00 0.00 0.00 0.00 0.00 0.00 0.00 0.00 0.00
0.00 0.01 0.01 0.01 0.01 0.01 0.01 0.01 0.01 0.01 0.00 0.00 0.00 0.01 0.03 0.05 0.05 0.03 0.02 0.02 0.00 0.02 0.04 0.02 0.01 0.00 0.00 0.00 0.00 0.00 0.00 0.00 0.01 0.01 0.00 0.00 0.00 0.00 0.00 0.00 0.00 0.00 0.00 0.00 0.00 0.00 0.00 0.00 0.00 0.00 0.00 0.00 0.00 0.00
0.00 0.00 0.00 0.00 0.01 0.01 0.01 0.01 0.00 0.00 0.00 0.00 0.01 0.03 0.04 0.06 0.07 0.04 0.06 0.05 0.04 0.02 0.02 0.01 0.01 0.00 0.00 0.00 0.00 0.00 0.00 0.01 0.01 0.01 0.00 0.00 0.00 0.00 0.00 0.00 0.00 0.00 0.00 0.00 0.00 0.00 0.00 0.00 0.00 0.00 0.00 0.00 0.00 0.00
0.00 0.00 0.00 0.00 0.01 0.01 0.01 0.01 0.00 0.00 0.00 0.02 0.04 0.05 0.07 0.08 0.05 0.01 0.01 0.03 0.00 0.01 0.02 0.01 0.01 0.03 0.00 0.00 0.00 0.00 0.00 0.00 0.00 0.00 0.00 0.01 0.00 0.00 0.00 0.00 0.00 0.00 0.00 0.00 0.00 0.00 0.00 0.00 0.00 0.00 0.00 0.00 0.00 0.00
0.00 0.00 0.00 0.00 0.00 0.00 0.00 0.00 0.00 0.01 0.02 0.03 0.03 0.03 0.02 0.01 0.02 0.02 0.02 0.03 0.02 0.01 0.01 0.01 0.00 0.01 0.00 0.00 0.00 0.00 0.00 0.00 0.00 0.00 0.00 0.01 0.00 0.00 0.00 0.00 0.00 0.00 0.00 0.00 0.00 0.00 0.00 0.00 0.00 0.00 0.00 0.00 0.00 0.00
0.00 0.00 0.00 0.00 0.00 0.00 0.00 0.00 0.01 0.03 0.04 0.03 0.01 0.01 0.02 0.03 0.03 0.01 0.01 0.01 0.01 0.00 0.00 0.00 0.00 0.01 0.00 0.00 0.00 0.00 0.00 0.00 0.00 0.00 0.01 0.00 0.00 0.00 0.00 0.00 0.00 0.00 0.00 0.00 0.00 0.00 0.00 0.00 0.00 0.00 0.00 0.00 0.00 0.00
0.00 0.00 0.00 0.00 0.00 0.00 0.00 0.00 0.01 0.02 0.01 0.01 0.00 0.01 0.02 0.01 0.00 0.00 0.00 0.00 0.00 0.01 0.00 0.00 0.00 0.00 0.00 0.00 0.00 0.00 0.00 0.00 0.00 0.01 0.01 0.00 0.00 0.00 0.00 0.00 0.02 0.02 0.01 0.00 0.00 0.00 0.00 0.00 0.00 0.00 0.00 0.00 0.00 0.00
0.00 0.00 0.00 0.00 0.00 0.00 0.00 0.00 0.01 0.00 0.00 0.00 0.00 0.00 0.00 0.00 0.00 0.00 0.00 0.00 0.00 0.00 0.00 0.00 0.00 0.00 0.00 0.00 0.00 0.00 0.00 0.00 0.00 0.01 0.00 0.00 0.00 0.00 0.00 0.01 0.01 0.00 0.00 0.00 0.00 0.00 0.00 0.00 0.00 0.00 0.00 0.00 0.00 0.00
0.00 0.00 0.00 0.00 0.00 0.00 0.00 0.00 0.01 0.00 0.00 0.00 0.00 0.00 0.00 0.00 0.00 0.00 0.00 0.00 0.00 0.00 0.00 0.00 0.00 0.00 0.00 0.00 0.00 0.00 0.00 0.00 0.00 0.00 0.00 0.00 0.00 0.00 0.00 0.01 0.00 0.00 0.00 0.00 0.00 0.00 0.00 0.00 0.00 0.00 0.00 0.00 0.00 0.00
0.00 0.00 0.00 0.00 0.00 0.00 0.00 0.00 0.00 0.00 0.00 0.00 0.00 0.00 0.00 0.00 0.00 0.00 0.00 0.00 0.00 0.00 0.00 0.00 0.00 0.00 0.00 0.00 0.00 0.00 0.00 0.00 0.00 0.00 0.02 0.00 0.00 0.00 0.00 0.00 0.00 0.00 0.00 0.00 0.00 0.00 0.00 0.00 0.00 0.00 0.00 0.00 0.00 0.00
0.00 0.00 0.00 0.00 0.00 0.00 0.00 0.01 0.00 0.00 0.00 0.00 0.00 0.00 0.00 0.00 0.00 0.00 0.00 0.00 0.00 0.00 0.00 0.00 0.00 0.00 0.00 0.00 0.00 0.00 0.00 0.00 0.00 0.00 0.00 0.00 0.00 0.00 0.00 0.00 0.00 0.00 0.00 0.00 0.00 0.00 0.00 0.00 0.00 0.00 0.00 0.00 0.00 0.00
0.00 0.00 0.00 0.00 0.00 0.00 0.00 0.00 0.00 0.00 0.00 0.00 0.00 0.00 0.00 0.00 0.00 0.00 0.00 0.00 0.00 0.00 0.00 0.01 0.00 0.00 0.02 0.01 0.00 0.00 0.00 0.00 0.00 0.00 0.00 0.00 0.00 0.00 0.00 0.00 0.00 0.00 0.00 0.00 0.00 0.00 0.00 0.00 0.00 0.00 0.00 0.00 0.00 0.00
0.00 0.00 0.00 0.00 0.00 0.00 0.00 0.00 0.00 0.00 0.00 0.00 0.00 0.00 0.00 0.00 0.00 0.00 0.00 0.00 0.00 0.00 0.01 0.01 0.00 0.00 0.01 0.01 0.01 0.00 0.00 0.00 0.00 0.00 0.00 0.00 0.00 0.00 0.00 0.00 0.00 0.00 0.00 0.00 0.00 0.00 0.00 0.00 0.00 0.00 0.00 0.00 0.00 0.00
0.00 0.00 0.00 0.00 0.00 0.00 0.00 0.00 0.00 0.00 0.00 0.00 0.00 0.00 0.00 0.00 0.00 0.00 0.00 0.00 0.00 0.01 0.00 0.00 0.00 0.00 0.00 0.00 0.00 0.00 0.00 0.00 0.00 0.00 0.00 0.00 0.00 0.00 0.00 0.00 0.00 0.00 0.00 0.00 0.00 0.00 0.00 0.00 0.00 0.00 0.00 0.00 0.00 0.00
0.00 0.00 0.00 0.00 0.00 0.00 0.00 0.00 0.00 0.00 0.00 0.00 0.00 0.00 0.00 0.00 0.00 0.00 0.00 0.00 0.00 0.00 0.00 0.00 0.00 0.00 0.00 0.00 0.00 0.00 0.00 0.00 0.00 0.00 0.00 0.00 0.00 0.00 0.00 0.00 0.00 0.00 0.00 0.00 0.00 0.00 0.00 0.00 0.00 0.00 0.00 0.00 0.00 0.00
0.00 0.00 0.00 0.00 0.00 0.00 0.00 0.00 0.00 0.00 0.00 0.00 0.00 0.00 0.00 0.00 0.00 0.00 0.00 0.00 0.00 0.00 0.01 0.00 0.00 0.00 0.00 0.00 0.00 0.00 0.00 0.00 0.00 0.00 0.00 0.00 0.00 0.00 0.00 0.00 0.00 0.00 0.00 0.00 0.00 0.00 0.00 0.00 0.00 0.00 0.00 0.00 0.00 0.00
0.00 0.00 0.00 0.00 0.00 0.00 0.00 0.00 0.00 0.00 0.00 0.00 0.00 0.00 0.00 0.00 0.00 0.00 0.00 0.00 0.00 0.00 0.00 0.00 0.00 0.00 0.00 0.00 0.00 0.00 0.00 0.00 0.00 0.00 0.00 0.00 0.00 0.00 0.00 0.00 0.00 0.00 0.00 0.00 0.00 0.00 0.00 0.00 0.00 0.00 0.00 0.00 0.00 0.00
0.00 0.00 0.00 0.00 0.00 0.00 0.00 0.00 0.00 0.00 0.00 0.00 0.00 0.00 0.00 0.00 0.00 0.00 0.00 0.00 0.00 0.00 0.00 0.00 0.00 0.00 0.00 0.00 0.00 0.00 0.00 0.00 0.00 0.00 0.00 0.00 0.00 0.00 0.00 0.00 0.00 0.00 0.00 0.00 0.00 0.00 0.00 0.00 0.00 0.00 0.00 0.00 0.00 0.00
0.00 0.00 0.00 0.00 0.00 0.00 0.00 0.00 0.00 0.00 0.00 0.00 0.00 0.00 0.00 0.00 0.00 0.00 0.00 0.00 0.00 0.00 0.00 0.00 0.00 0.00 0.00 0.00 0.00 0.00 0.00 0.00 0.00 0.00 0.00 0.00 0.00 0.00 0.00 0.00 0.00 0.00 0.00 0.00 0.00 0.00 0.00 0.00 0.00 0.00 0.00 0.00 0.00 0.00
0.00 0.00 0.00 0.00 0.00 0.00 0.00 0.00 0.00 0.00 0.00 0.00 0.00 0.00 0.00 0.00 0.00 0.00 0.00 0.00 0.00 0.00 0.00 0.00 0.00 0.00 0.00 0.00 0.00 0.00 0.00 0.00 0.00 0.00 0.00 0.00 0.00 0.00 0.00 0.00 0.00 0.00 0.00 0.00 0.00 0.00 0.00 0.00 0.00 0.00 0.00 0.00 0.00 0.00
0.00 0.00 0.00 0.00 0.00 0.00 0.00 0.00 0.00 0.00 0.00 0.00 0.00 0.00 0.00 0.00 0.00 0.00 0.00 0.01 0.01 0.00 0.00 0.00 0.00 0.00 0.00 0.00 0.00 0.00 0.00 0.00 0.00 0.00 0.00 0.00 0.00 0.00 0.00 0.00 0.00 0.00 0.00 0.00 0.00 0.00 0.00 0.00 0.00 0.00 0.00 0.00 0.00 0.00
0.00 0.00 0.00 0.00 0.00 0.00 0.00 0.00 0.00 0.00 0.00 0.00 0.00 0.00 0.00 0.00 0.00 0.00 0.00 0.00 0.00 0.00 0.00 0.00 0.00 0.00 0.00 0.00 0.00 0.00 0.00 0.00 0.00 0.00 0.00 0.00 0.00 0.00 0.00 0.00 0.00 0.00 0.00 0.00 0.00 0.00 0.00 0.00 0.00 0.00 0.00 0.00 0.00 0.00
0.00 0.00 0.00 0.00 0.00 0.00 0.00 0.00 0.00 0.00 0.00 0.00 0.00 0.00 0.00 0.00 0.00 0.00 0.00 0.00 0.00 0.00 0.00 0.00 0.00 0.00 0.00 0.00 0.00 0.00 0.00 0.00 0.00 0.00 0.00 0.00 0.00 0.00 0.00 0.00 0.00 0.00 0.00 0.00 0.00 0.00 0.00 0.00 0.00 0.00 0.00 0.00 0.00 0.00
0.00 0.00 0.00 0.00 0.00 0.00 0.00 0.00 0.00 0.00 0.00 0.00 0.00 0.00 0.00 0.00 0.00 0.00 0.00 0.00 0.00 0.00 0.00 0.00 0.00 0.00 0.00 0.00 0.00 0.00 0.00 0.00 0.00 0.00 0.00 0.00 0.00 0.00 0.00 0.00 0.00 0.00 0.00 0.00 0.00 0.00 0.00 0.00 0.00 0.00 0.00 0.00 0.00 0.00
0.00 0.00 0.00 0.00 0.00 0.00 0.00 0.00 0.00 0.00 0.00 0.00 0.00 0.00 0.00 0.00 0.00 0.00 0.00 0.00 0.00 0.00 0.00 0.00 0.00 0.00 0.00 0.00 0.00 0.00 0.00 0.00 0.00 0.00 0.00 0.00 0.00 0.00 0.00 0.00 0.00 0.00 0.00 0.00 0.00 0.00 0.00 0.00 0.00 0.00 0.00 0.00 0.00 0.00
0.00 0.00 0.00 0.00 0.00 0.00 0.00 0.00 0.00 0.00 0.00 0.00 0.00 0.00 0.00 0.00 0.00 0.00 0.00 0.00 0.00 0.00 0.00 0.00 0.00 0.00 0.00 0.00 0.00 0.00 0.00 0.00 0.00 0.00 0.00 0.00 0.00 0.00 0.00 0.00 0.00 0.00 0.00 0.00 0.00 0.00 0.00 0.00 0.00 0.00 0.00 0.00 0.00 0.00
0.00 0.00 0.00 0.00 0.00 0.00 0.00 0.00 0.00 0.00 0.00 0.00 0.00 0.00 0.00 0.00 0.00 0.00 0.00 0.00 0.00 0.00 0.00 0.00 0.00 0.00 0.00 0.00 0.00 0.00 0.00 0.00 0.00 0.00 0.00 0.00 0.00 0.00 0.00 0.00 0.00 0.00 0.00 0.00 0.00 0.00 0.00 0.00 0.00 0.00 0.00 0.00 0.00 0.00
0.00 0.00 0.00 0.00 0.00 0.00 0.00 0.00 0.00 0.00 0.00 0.00 0.00 0.00 0.00 0.00 0.00 0.00 0.00 0.00 0.00 0.00 0.00 0.00 0.00 0.00 0.00 0.00 0.00 0.00 0.00 0.00 0.00 0.00 0.00 0.00 0.00 0.00 0.00 0.00 0.00 0.00 0.00 0.00 0.00 0.00 0.00 0.00 0.00 0.00 0.00 0.00 0.00 0.00
MSLP
1016.96 1016.89 1016.96 1017.15 1017.35 1017.46 1017.69 1017.86 1018.15 1018.53 1018.85 1019.17 1019.41 1019.61 1019.75 1019.85 1019.81 1020.06 1019.79 1020.23 1020.40 1019.24 1017.82 1017.62 1017.35 1016.89 1016.46 1016.70 1016.21 1016.21 1016.12 1015.18 1015.03 1014.30 1013.25 1011.75 1010.75 1010.21 1009.94 1009.59 1009.55 1009.77 1009.95 1009.90 1009.75 1008.99 1007.62 1006.75 1007.69 1007.68 1007.15 1007.37 1007.55 1007.71
1015.39 1015.44 1015.47 1015.66 1015.87 1016.09 1016.45 1016.75 1017.05 1017.53 1017.88 1018.20 1018.54 1018.88 1019.02 1019.13 1019.29 1019.45 1019.34 1019.25 1019.72 1019.70 1018.23 1017.59 1017.34 1016.93 1016.67 1016.54 1016.60 1016.70 1016.05 1015.88 1014.57 1013.48 1012.56 1011.26 1010.40 1010.01 1009.40 1008.81 1008.88 1008.96 1008.64 1008.63 1008.78 1007.65 1007.54 1007.35 1007.11 1007.17 1007.30 1007.49 1007.94 1008.19
1013.43 1013.31 1013.33 1013.67 1014.17 1014.59 1014.98 1015.38 1015.86 1016.40 1016.93 1017.40 1017.76 1018.11 1018.31 1018.44 1018.52 1018.73 1018.76 1018.79 1019.26 1018.89 1017.83 1016.79 1015.83 1015.84 1015.84 1015.78 1016.03 1015.99 1015.61 1015.68 1015.15 1014.11 1012.36 1011.04 1010.16 1009.51 1008.83 1008.35 1008.25 1008.21 1008.43 1008.40 1008.34 1007.64 1007.36 1007.40 1007.21 1007.26 1007.10 1007.39 1007.88 1008.01
1010.73 1010.63 1010.78 1011.20 1011.83 1012.47 1013.15 1013.85 1014.61 1015.44 1016.05 1016.55 1017.00 1017.31 1017.53 1017.66 1017.76 1017.98 1018.26 1018.48 1018.77 1018.18 1016.95 1014.94 1014.35 1014.50 1014.50 1014.43 1014.52 1014.83 1014.73 1014.90 1014.95 1014.50 1012.75 1011.00 1010.09 1009.88 1008.90 1008.38 1008.12 1008.03 1008.12 1007.74 1007.50 1007.37 1007.30 1007.37 1007.17 1006.77 1006.59 1006.82 1007.11 1007.30
1007.43 1007.04 1007.22 1007.81 1008.75 1009.93 1011.16 1012.33 1013.50 1014.37 1015.07 1015.72 1016.17 1016.56 1016.89 1017.03 1017.04 1017.42 1017.73 1017.82 1018.03 1018.18 1016.40 1015.07 1014.61 1013.46 1013.26 1012.72 1013.08 1013.49 1013.95 1014.28 1014.20 1013.73 1012.11 1010.72 1009.88 1009.86 1008.96 1008.78 1007.65 1007.50 1007.29 1007.16 1006.44 1006.67 1006.71 1006.11 1006.07 1006.32 1006.42 1006.31 1006.44 1006.73
1005.39 1004.33 1003.77 1003.86 1005.33 1007.29 1009.20 1010.89 1012.30 1013.37 1014.22 1014.93 1015.51 1016.01 1016.42 1016.58 1016.84 1017.72 1017.41 1016.94 1017.15 1017.74 1017.58 1015.36 1013.44 1012.80 1012.58 1012.52 1012.52 1012.76 1013.10 1013.30 1013.22 1012.71 1011.00 1010.14 1010.06 1009.91 1008.32 1007.21 1006.85 1006.58 1006.58 1006.33 1005.91 1005.99 1006.06 1005.78 1005.96 1006.27 1006.09 1005.99 1005.96 1006.11
1004.46 1002.84 1002.31 1002.01 1002.48 1004.88 1007.60 1009.66 1011.36 1012.63 1013.63 1014.50 1015.15 1015.58 1016.02 1016.22 1016.82 1016.79 1016.15 1015.36 1015.72 1016.94 1017.20 1015.50 1012.91 1012.34 1012.19 1012.59 1012.81 1012.67 1012.83 1012.51 1011.98 1011.01 1010.34 1009.82 1009.68 1009.94 1008.21 1006.78 1006.00 1005.89 1005.74 1005.55 1005.48 1005.63 1005.54 1005.53 1005.31 1005.29 1005.22 1005.36 1005.54 1005.60
1004.66 1002.87 1002.41 1000.68 1000.83 1003.63 1007.12 1009.25 1011.09 1012.26 1013.32 1014.21 1014.84 1015.25 1015.58 1015.93 1016.31 1016.28 1016.26 1016.10 1016.08 1016.40 1016.45 1015.37 1013.00 1012.19 1012.16 1012.07 1012.25 1012.09 1011.58 1011.36 1010.98 1010.32 1010.27 1009.60 1009.60 1009.27 1007.10 1004.91 1004.94 1004.76 1004.81 1004.83 1004.80 1004.97 1005.06 1005.15 1005.14 1004.85 1004.90 1004.91 1004.99 1004.95
1006.11 1004.55 1003.70 1003.45 1003.88 1005.86 1007.82 1009.66 1011.13 1012.26 1013.32 1014.13 1014.69 1015.21 1015.56 1015.61 1015.21 1014.68 1015.38 1016.55 1017.36 1017.47 1015.90 1014.47 1012.66 1011.44 1011.78 1011.81 1011.86 1011.85 1011.45 1011.07 1010.95 1010.12 1009.85 1009.52 1008.49 1007.47 1005.20 1004.56 1004.23 1004.15 1004.22 1003.97 1004.17 1004.35 1004.45 1004.61 1004.43 1004.45 1004.39 1004.59 1004.62 1004.55
1008.09 1007.37 1006.74 1006.39 1006.80 1007.95 1009.42 1010.69 1011.64 1012.59 1013.37 1014.06 1014.88 1014.97 1014.73 1014.15 1014.32 1014.78 1015.58 1015.91 1016.41 1016.02 1015.58 1013.35 1012.08 1011.47 1011.58 1011.44 1011.48 1011.44 1011.24 1010.93 1010.60 1009.41 1009.11 1008.69 1006.84 1005.14 1004.87 1004.59 1004.14 1003.88 1003.66 1003.94 1003.99 1003.90 1003.99 1003.94 1003.90 1003.99 1003.97 1004.15 1004.33 1004.47
1009.70 1009.38 1009.21 1009.34 1009.54 1009.96 1010.60 1011.40 1012.17 1012.75 1013.38 1013.60 1014.04 1014.16 1013.97 1014.17 1014.65 1014.99 1014.66 1014.72 1014.13 1013.75 1012.96 1011.44 1011.05 1011.00 1011.31 1011.22 1011.13 1011.30 1011.25 1011.08 1009.95 1008.55 1008.61 1007.30 1005.49 1004.84 1005.00 1004.77 1004.62 1004.35 1003.87 1003.70 1003.74 1003.66 1003.71 1003.71 1003.72 1003.86 1004.00 1004.33 1004.55 1004.81
1010.79 1010.66 1010.62 1010.69 1010.96 1011.26 1011.60 1012.02 1012.42 1012.69 1012.95 1013.22 1013.56 1014.26 1014.46 1014.44 1014.34 1014.10 1012.81 1012.48 1011.86 1010.86 1010.63 1010.31 1010.42 1010.42 1011.03 1011.10 1010.91 1011.48 1011.05 1010.99 1009.61 1009.09 1008.36 1006.30 1004.96 1005.13 1005.64 1005.60 1005.54 1005.08 1004.64 1004.35 1004.10 1003.82 1003.73 1003.77 1003.88 1004.15 1004.55 1004.92 1005.42 1006.15
1011.43 1011.42 1011.50 1011.61 1011.81 1012.02 1012.33 1012.62 1012.68 1012.91 1013.11 1013.30 1013.56 1013.88 1013.65 1013.23 1012.94 1011.96 1010.92 1010.60 1010.24 1010.17 1010.34 1010.39 1010.55 1010.71 1011.35 1011.43 1011.04 1011.00 1010.72 1010.00 1009.52 1008.65 1006.82 1005.31 1005.27 1005.88 1006.23 1005.85 1006.06 1005.84 1005.57 1005.17 1004.84 1004.69 1004.57 1004.64 1004.69 1004.92 1005.34 1006.02 1006.52 1007.04
1011.92 1011.77 1012.10 1012.22 1012.32 1012.44 1012.61 1012.91 1013.17 1013.17 1013.09 1013.09 1013.24 1012.73 1012.42 1011.73 1011.27 1010.65 1010.31 1010.05 1010.29 1010.11 1010.43 1010.13 1010.61 1010.60 1011.06 1011.08 1010.81 1010.52 1009.92 1009.53 1008.57 1007.31 1005.85 1005.36 1006.12 1006.57 1006.71 1006.97 1006.72 1006.48 1006.37 1006.07 1005.96 1005.94 1005.97 1006.14 1006.34 1006.46 1006.53 1006.89 1007.35 1008.02
1012.81 1012.56 1012.54 1012.65 1012.69 1012.77 1012.84 1013.02 1013.33 1013.62 1013.81 1013.20 1012.73 1011.98 1011.66 1011.37 1011.21 1011.13 1010.98 1010.63 1010.58 1010.37 1010.43 1010.48 1010.61 1010.60 1010.64 1010.57 1010.45 1009.98 1009.36 1008.28 1007.43 1006.33 1005.80 1006.48 1007.06 1007.32 1007.36 1007.55 1007.51 1007.31 1007.14 1006.87 1006.88 1007.01 1007.19 1007.37 1007.42 1007.62 1007.70 1007.83 1008.17 1008.69
1012.96 1012.84 1012.95 1012.79 1012.63 1012.71 1012.95 1013.28 1013.67 1014.10 1013.67 1013.01 1012.40 1012.03 1011.67 1011.49 1011.33 1011.30 1011.04 1010.86 1010.87 1010.59 1010.51 1010.34 1010.19 1010.18 1009.93 1009.67 1009.46 1008.91 1008.23 1007.19 1006.51 1006.62 1006.98 1007.43 1007.67 1007.97 1008.11 1008.23 1008.18 1008.05 1007.89 1007.59 1007.77 1007.93 1008.09 1008.17 1008.23 1008.54 1008.67 1008.83 1009.15 1009.45
1012.88 1012.95 1013.11 1012.72 1012.40 1012.47 1012.75 1013.16 1013.49 1013.37 1012.80 1012.61 1012.33 1012.24 1011.96 1011.84 1011.45 1011.28 1011.21 1011.11 1011.08 1011.01 1010.57 1010.23 1010.00 1009.32 1009.19 1008.56 1008.20 1007.77 1007.39 1007.12 1007.36 1007.36 1007.65 1007.90 1008.20 1008.35 1008.50 1008.48 1008.47 1008.49 1008.34 1008.26 1008.37 1008.44 1008.63 1008.80 1008.89 1008.81 1009.08 1009.61 1009.82 1010.25
1012.67 1012.78 1012.85 1012.70 1012.54 1012.79 1012.77 1012.82 1012.52 1012.28 1012.15 1012.32 1012.11 1012.01 1012.13 1012.07 1011.81 1011.54 1011.36 1011.33 1011.22 1010.90 1010.70 1010.27 1010.23 1009.41 1008.44 1007.63 1007.36 1007.67 1007.91 1008.04 1008.15 1008.16 1008.10 1008.30 1008.48 1008.61 1008.69 1008.73 1008.79 1008.76 1008.78 1008.79 1008.79 1008.86 1008.94 1008.99 1008.79 1008.99 1009.48 1009.99 1010.31 1010.59
1012.84 1012.68 1012.62 1012.36 1012.18 1012.03 1012.03 1012.23 1012.09 1011.59 1011.73 1012.02 1012.09 1012.16 1012.13 1011.90 1011.72 1011.56 1011.47 1011.36 1011.25 1011.24 1011.02 1010.44 1009.87 1008.95 1008.14 1007.89 1008.16 1008.30 1008.37 1008.53 1008.32 1008.30 1008.40 1008.61 1008.75 1008.85 1008.89 1008.89 1008.87 1008.88 1008.84 1008.82 1008.71 1008.54 1008.64 1008.76 1008.63 1008.98 1009.41 1009.82 1010.16 1010.73
1012.72 1012.68 1012.59 1012.31 1012.07 1011.65 1011.66 1011.84 1011.91 1011.51 1011.24 1011.36 1011.55 1011.41 1011.44 1011.36 1011.23 1011.18 1011.13 1011.19 1011.22 1011.13 1010.71 1010.01 1009.08 1008.46 1008.54 1008.69 1008.82 1008.80 1008.90 1008.93 1008.80 1008.45 1008.34 1008.45 1008.66 1008.84 1008.74 1008.71 1008.68 1008.71 1008.76 1008.81 1008.72 1008.73 1008.68 1008.79 1008.86 1009.13 1009.44 1009.81 1010.20 1010.80
1012.45 1012.42 1012.27 1012.06 1011.90 1011.73 1011.69 1011.57 1011.35 1011.33 1011.14 1010.96 1010.87 1010.89 1010.62 1010.95 1010.92 1010.81 1010.68 1010.82 1010.86 1010.52 1009.86 1009.29 1009.30 1009.35 1009.53 1009.53 1009.51 1009.41 1009.25 1009.14 1008.92 1008.80 1008.67 1008.57 1008.56 1008.83 1008.74 1008.70 1008.63 1008.64 1008.61 1008.54 1008.40 1008.38 1008.62 1008.37 1008.77 1009.22 1009.86 1010.23 1010.61 1011.05
1012.61 1012.58 1012.20 1012.08 1011.81 1011.80 1011.84 1012.05 1011.88 1011.45 1011.28 1010.75 1010.67 1010.59 1010.32 1010.31 1010.25 1010.39 1010.58 1010.51 1010.28 1010.02 1010.21 1010.10 1010.01 1009.86 1009.69 1009.69 1009.68 1009.69 1009.64 1009.54 1009.36 1009.23 1009.19 1009.06 1008.72 1008.51 1008.48 1008.51 1008.47 1008.28 1008.26 1008.30 1008.19 1008.16 1008.27 1008.40 1008.91 1009.42 1009.91 1010.55 1011.03 1011.58
1012.91 1012.71 1012.52 1012.38 1012.33 1012.17 1012.48 1012.20 1011.70 1011.31 1011.09 1010.78 1010.64 1010.39 1010.16 1010.08 1010.11 1010.42 1010.14 1010.04 1010.40 1010.67 1010.67 1010.59 1010.40 1010.16 1009.95 1009.80 1009.74 1009.66 1009.64 1009.50 1009.17 1008.95 1008.92 1008.82 1008.69 1008.57 1008.54 1008.41 1008.31 1008.19 1007.99 1007.92 1008.02 1008.11 1008.29 1008.69 1009.19 1009.60 1010.07 1010.62 1011.13 1011.74
1013.35 1013.48 1013.44 1013.33 1013.22 1013.02 1012.98 1012.35 1012.01 1011.66 1011.45 1011.10 1010.83 1010.47 1010.20 1010.26 1010.33 1010.05 1009.84 1010.20 1010.60 1010.73 1010.67 1010.67 1010.41 1010.04 1009.79 1009.68 1009.62 1009.61 1009.66 1009.63 1009.24 1008.89 1008.67 1008.61 1008.36 1008.21 1008.23 1008.10 1008.02 1007.99 1007.97 1007.88 1008.03 1008.13 1008.38 1008.72 1009.13 1009.59 1010.11 1010.54 1011.00 1011.48
1013.81 1014.99 1014.63 1014.20 1013.97 1013.58 1013.19 1012.68 1012.44 1012.12 1011.86 1011.68 1011.44 1010.92 1010.60 1010.68 1010.36 1010.20 1010.22 1010.47 1010.59 1010.85 1011.09 1010.88 1010.69 1010.51 1010.23 1010.00 1009.88 1009.93 1009.97 1010.03 1009.78 1009.23 1008.59 1008.39 1008.29 1008.23 1008.16 1008.04 1007.91 1007.93 1008.03 1008.02 1008.05 1008.19 1008.44 1008.82 1009.13 1009.47 1009.89 1010.36 1010.83 1011.35
1014.22 1015.05 1014.94 1014.50 1014.18 1013.96 1013.50 1013.09 1012.81 1012.62 1012.48 1012.12 1011.65 1011.60 1011.50 1011.20 1010.95 1010.73 1010.95 1011.17 1011.35 1011.54 1011.64 1011.59 1011.38 1011.13 1010.82 1010.67 1010.69 1010.69 1010.78 1010.82 1010.40 1009.60 1008.78 1008.36 1008.22 1008.07 1007.87 1007.79 1007.71 1007.64 1007.89 1007.97 1008.03 1008.18 1008.42 1008.72 1009.05 1009.45 1009.90 1010.40 1010.92 1011.41
1014.66 1014.94 1014.91 1014.87 1014.65 1014.39 1013.94 1013.50 1013.37 1013.22 1012.92 1012.59 1012.30 1012.08 1011.84 1011.51 1011.40 1011.76 1012.20 1012.42 1012.47 1012.48 1012.52 1012.45 1012.27 1011.99 1011.65 1011.35 1011.25 1011.20 1011.08 1010.67 1010.35 1009.95 1009.47 1008.94 1008.52 1008.16 1007.96 1007.81 1007.65 1007.57 1007.72 1007.91 1008.02 1008.14 1008.33 1008.67 1009.05 1009.46 1009.93 1010.52 1011.02 1011.45
1015.17 1015.20 1015.11 1014.95 1014.83 1014.68 1014.32 1014.01 1013.79 1013.42 1013.23 1013.21 1012.92 1012.46 1012.32 1012.45 1012.45 1012.96 1013.59 1013.95 1013.81 1013.48 1013.02 1012.80 1012.67 1012.49 1012.15 1011.76 1011.53 1011.21 1010.74 1010.41 1010.03 1009.59 1009.13 1008.71 1008.44 1008.33 1008.19 1008.02 1007.97 1008.08 1007.96 1008.00 1008.04 1008.17 1008.35 1008.63 1008.99 1009.40 1009.89 1010.45 1011.13 1011.75
1015.24 1015.38 1015.40 1015.18 1015.08 1014.81 1014.50 1014.24 1013.95 1013.89 1013.98 1013.74 1013.48 1013.08 1012.86 1013.39 1014.43 1014.65 1014.71 1014.77 1014.38 1013.99 1013.71 1013.51 1013.24 1013.06 1012.37 1011.99 1011.49 1011.16 1010.88 1010.48 1009.98 1009.35 1008.89 1008.41 1008.09 1007.96 1008.16 1008.14 1008.04 1008.02 1008.03 1008.04 1008.30 1008.30 1008.34 1008.61 1008.96 1009.34 1009.88 1010.47 1011.21 1011.92
1015.69 1015.92 1015.50 1015.45 1015.29 1014.73 1014.53 1014.72 1014.48 1014.33 1014.42 1014.26 1014.03 1013.64 1013.60 1014.56 1015.64 1015.87 1015.69 1015.45 1015.15 1015.05 1014.95 1014.68 1014.35 1013.85 1013.33 1012.78 1012.07 1011.40 1011.05 1010.56 1010.20 1009.88 1009.32 1008.89 1008.60 1008.61 1008.50 1008.37 1008.27 1008.23 1008.27 1008.35 1008.56 1008.80 1008.92 1009.00 1009.34 1009.75 1010.24 1010.93 1011.58 1012.21
1016.51 1016.20 1015.81 1015.49 1015.04 1014.61 1014.73 1015.16 1014.99 1014.94 1014.77 1014.48 1014.52 1014.44 1014.29 1015.15 1016.04 1016.56 1016.71 1016.60 1016.34 1016.01 1015.66 1015.33 1014.93 1014.52 1014.03 1013.58 1013.07 1012.39 1011.49 1010.70 1010.43 1010.23 1009.88 1009.49 1009.11 1008.83 1008.70 1008.69 1008.68 1008.66 1008.68 1008.75 1008.91 1009.08 1009.28 1009.47 1009.74 1010.13 1010.63 1011.21 1011.85 1012.45
1016.76 1016.67 1016.63 1015.81 1015.18 1014.95 1015.26 1015.08 1014.81 1014.81 1014.76 1014.68 1014.47 1014.67 1014.80 1015.10 1015.82 1016.73 1017.54 1017.21 1016.77 1016.44 1016.34 1016.07 1015.48 1014.81 1014.58 1014.16 1013.64 1013.04 1012.56 1011.76 1010.96 1010.21 1009.95 1009.63 1009.24 1009.17 1009.14 1009.15 1009.14 1009.11 1009.14 1009.25 1009.43 1009.62 1009.84 1010.07 1010.43 1010.86 1011.41 1012.00 1012.57 1013.14
1017.12 1017.11 1016.96 1016.62 1015.94 1015.42 1015.24 1015.46 1014.70 1014.82 1014.88 1014.74 1014.85 1015.27 1015.44 1015.62 1016.26 1017.38 1017.76 1017.86 1017.66 1017.33 1016.96 1016.55 1015.90 1015.21 1014.66 1014.20 1013.56 1013.01 1012.37 1011.69 1011.23 1010.83 1010.47 1010.21 1009.96 1009.76 1009.66 1009.62 1009.60 1009.63 1009.68 1009.84 1010.09 1010.38 1010.67 1011.00 1011.40 1011.90 1012.47 1013.04 1013.59 1014.14
Thickness
5307 5304 5302 5299 5295 5293 5290 5288 5286 5284 5281 5279 5278 5278 5279 5279 5281 5283 5291 5288 5290 5305 5324 5328 5333 5338 5347 5344 5359 5364 5371 5385 5387 5398 5405 5429 5437 5441 5440 5447 5443 5441 5433 5437 5442 5437 5444 5474 5459 5452 5463 5461 5461 5461
5304 5300 5297 5293 5289 5286 5283 5281 5280 5277 5275 5273 5271 5270 5270 5269 5269 5272 5279 5283 5285 5287 5308 5317 5323 5331 5336 5341 5343 5343 5364 5366 5385 5399 5413 5427 5429 5432 5440 5438 5448 5440 5449 5445 5440 5458 5456 5456 5458 5456 5454 5454 5450 5449
5312 5309 5305 5299 5292 5288 5284 5281 5279 5275 5272 5269 5267 5266 5266 5266 5266 5265 5268 5272 5276 5286 5301 5316 5329 5332 5333 5339 5340 5346 5357 5358 5363 5383 5406 5420 5423 5436 5435 5443 5442 5443 5441 5433 5434 5447 5448 5446 5448 5447 5451 5447 5444 5442
5323 5317 5311 5305 5299 5294 5288 5283 5278 5272 5268 5264 5263 5263 5263 5263 5262 5262 5263 5263 5270 5286 5295 5327 5334 5335 5338 5343 5346 5351 5359 5364 5362 5368 5392 5412 5420 5422 5431 5437 5434 5436 5433 5433 5431 5437 5437 5435 5437 5444 5449 5449 5448 5447
5334 5329 5322 5315 5307 5300 5291 5284 5276 5271 5267 5262 5261 5261 5260 5261 5263 5262 5261 5263 5268 5278 5298 5317 5326 5340 5344 5353 5355 5358 5361 5361 5365 5371 5392 5405 5419 5413 5424 5420 5429 5435 5429 5425 5431 5437 5434 5445 5447 5445 5445 5448 5451 5450
5334 5329 5325 5326 5318 5306 5295 5285 5277 5272 5267 5263 5260 5259 5258 5260 5260 5255 5259 5266 5270 5275 5281 5310 5336 5342 5348 5351 5358 5362 5364 5365 5366 5374 5400 5410 5409 5408 5421 5430 5436 5436 5431 5431 5434 5436 5435 5442 5441 5438 5441 5446 5451 5451
5325 5320 5314 5314 5319 5310 5296 5287 5277 5272 5267 5261 5258 5258 5259 5260 5258 5261 5271 5277 5277 5278 5284 5307 5340 5344 5349 5347 5347 5355 5358 5366 5381 5396 5401 5409 5407 5397 5412 5418 5431 5430 5428 5428 5429 5430 5431 5433 5437 5442 5445 5447 5446 5449
5314 5309 5304 5314 5324 5313 5294 5284 5275 5271 5265 5261 5260 5260 5260 5260 5259 5263 5267 5270 5276 5286 5294 5304 5336 5345 5346 5354 5358 5356 5375 5382 5390 5397 5395 5400 5396 5396 5408 5437 5435 5433 5428 5425 5426 5429 5432 5433 5435 5439 5441 5443 5444 5449
5307 5301 5298 5300 5304 5295 5288 5280 5274 5269 5263 5261 5261 5260 5260 5262 5267 5277 5273 5271 5272 5279 5299 5316 5337 5357 5352 5354 5359 5363 5374 5378 5384 5390 5385 5393 5400 5395 5422 5430 5430 5428 5422 5427 5427 5433 5434 5431 5435 5437 5440 5440 5442 5447
5309 5299 5292 5291 5290 5285 5280 5275 5271 5267 5265 5264 5261 5264 5267 5277 5278 5280 5281 5283 5285 5293 5298 5325 5345 5353 5356 5360 5364 5371 5376 5377 5374 5395 5394 5390 5408 5426 5424 5423 5423 5422 5424 5422 5423 5428 5430 5434 5435 5434 5439 5441 5442 5444
5315 5307 5299 5292 5286 5283 5280 5276 5273 5272 5270 5274 5274 5279 5285 5286 5286 5285 5294 5297 5311 5317 5325 5348 5358 5355 5358 5360 5367 5371 5369 5368 5380 5403 5390 5400 5416 5423 5416 5414 5411 5413 5419 5424 5427 5430 5430 5431 5431 5431 5433 5432 5432 5432
5321 5316 5309 5301 5297 5294 5290 5288 5287 5288 5289 5291 5291 5288 5290 5294 5298 5302 5320 5325 5334 5354 5353 5358 5362 5368 5360 5364 5369 5362 5366 5360 5372 5383 5380 5402 5421 5416 5403 5396 5397 5406 5412 5416 5420 5425 5427 5427 5428 5427 5424 5421 5418 5410
5326 5322 5317 5312 5306 5303 5301 5300 5300 5300 5301 5301 5302 5300 5308 5315 5319 5331 5344 5353 5356 5355 5353 5353 5357 5360 5355 5357 5363 5363 5359 5366 5375 5374 5398 5416 5417 5401 5392 5384 5395 5400 5403 5407 5411 5413 5416 5416 5418 5418 5415 5408 5402 5396
5330 5328 5323 5319 5317 5313 5311 5309 5309 5309 5312 5314 5313 5325 5329 5337 5345 5355 5360 5361 5353 5356 5350 5362 5353 5361 5354 5354 5360 5359 5372 5373 5373 5383 5404 5417 5400 5391 5389 5383 5392 5394 5393 5398 5397 5397 5394 5399 5392 5391 5392 5390 5384 5379
5326 5327 5326 5324 5322 5321 5319 5317 5316 5314 5311 5320 5325 5340 5340 5344 5343 5342 5343 5350 5350 5356 5355 5357 5357 5361 5357 5358 5357 5364 5366 5378 5387 5399 5409 5393 5381 5379 5384 5380 5382 5384 5380 5387 5387 5380 5378 5378 5380 5377 5375 5376 5372 5368
5327 5328 5326 5327 5327 5326 5323 5321 5318 5314 5317 5327 5333 5338 5343 5344 5344 5342 5346 5350 5347 5354 5354 5358 5360 5360 5363 5365 5365 5369 5379 5387 5400 5395 5385 5373 5373 5372 5371 5369 5371 5372 5375 5378 5375 5372 5369 5368 5369 5365 5363 5361 5359 5357
5329 5329 5326 5329 5331 5330 5328 5324 5322 5325 5333 5331 5332 5332 5336 5336 5343 5343 5344 5345 5345 5346 5352 5358 5355 5367 5367 5371 5376 5388 5387 5392 5381 5379 5372 5369 5366 5366 5363 5363 5363 5363 5366 5368 5365 5363 5359 5356 5355 5361 5358 5349 5349 5344
5331 5328 5327 5328 5328 5326 5327 5327 5331 5335 5333 5328 5335 5333 5329 5329 5332 5336 5337 5337 5339 5343 5344 5349 5345 5355 5368 5380 5386 5378 5368 5365 5364 5364 5365 5363 5361 5359 5357 5358 5356 5357 5356 5355 5354 5352 5350 5350 5357 5354 5347 5341 5338 5336
5328 5327 5326 5325 5327 5330 5332 5329 5330 5338 5334 5325 5322 5322 5322 5325 5327 5330 5330 5330 5331 5330 5332 5338 5338 5350 5367 5371 5364 5358 5355 5353 5361 5361 5359 5354 5352 5350 5349 5350 5350 5349 5350 5351 5353 5356 5355 5351 5353 5348 5344 5341 5339 5333
5327 5326 5325 5326 5326 5331 5331 5328 5326 5331 5337 5333 5326 5327 5326 5327 5328 5327 5328 5326 5325 5325 5331 5338 5350 5358 5357 5351 5347 5348 5346 5345 5348 5356 5358 5356 5350 5345 5347 5348 5347 5346 5345 5344 5346 5344 5346 5344 5343 5340 5338 5336 5332 5326
5328 5327 5326 5326 5327 5328 5328 5327 5330 5329 5330 5331 5331 5331 5335 5326 5326 5327 5328 5323 5324 5329 5340 5344 5340 5334 5328 5329 5331 5335 5337 5340 5344 5346 5348 5348 5346 5341 5341 5340 5341 5341 5341 5341 5343 5344 5338 5344 5339 5334 5327 5325 5322 5319
5329 5325 5327 5325 5327 5325 5323 5318 5320 5322 5323 5328 5328 5328 5330 5328 5330 5326 5322 5323 5328 5329 5321 5322 5322 5322 5324 5324 5324 5324 5325 5326 5328 5330 5328 5330 5336 5340 5340 5338 5337 5339 5338 5337 5339 5339 5338 5337 5331 5327 5322 5316 5313 5309
5328 5327 5326 5324 5321 5320 5316 5314 5319 5322 5319 5321 5322 5322 5324 5324 5322 5316 5320 5323 5314 5309 5308 5308 5309 5312 5314 5315 5315 5316 5316 5318 5322 5325 5324 5324 5326 5328 5328 5330 5331 5332 5334 5335 5333 5333 5331 5326 5322 5318 5315 5310 5306 5301
5326 5319 5314 5314 5312 5313 5306 5310 5314 5314 5312 5314 5314 5314 5315 5311 5309 5311 5315 5307 5300 5298 5299 5299 5302 5306 5308 5308 5308 5308 5306 5306 5311 5316 5318 5317 5320 5323 5322 5325 5325 5325 5326 5328 5326 5325 5323 5319 5315 5311 5307 5304 5300 5297
5329 5312 5311 5310 5306 5307 5305 5308 5302 5306 5304 5303 5299 5300 5304 5299 5301 5300 5296 5294 5292 5287 5282 5285 5287 5289 5291 5293 5294 5293 5292 5291 5293 5299 5307 5308 5309 5310 5311 5313 5315 5315 5315 5316 5316 5315 5313 5310 5308 5305 5301 5297 5293 5289
5320 5307 5314 5310 5309 5305 5305 5303 5299 5297 5293 5292 5295 5291 5288 5290 5288 5286 5284 5279 5274 5270 5267 5266 5266 5268 5271 5272 5270 5269 5267 5268 5273 5281 5291 5296 5298 5299 5303 5304 5306 5308 5304 5305 5306 5305 5303 5301 5298 5295 5291 5287 5282 5279
5320 5314 5308 5301 5299 5298 5297 5296 5291 5287 5282 5282 5282 5280 5281 5282 5279 5274 5262 5257 5256 5252 5247 5244 5244 5244 5246 5249 5249 5248 5249 5254 5258 5262 5266 5273 5278 5283 5286 5290 5293 5295 5293 5292 5293 5293 5292 5289 5286 5283 5279 5274 5270 5267
5308 5301 5301 5299 5290 5286 5285 5281 5276 5279 5278 5273 5272 5272 5270 5265 5268 5255 5242 5233 5230 5230 5232 5230 5229 5228 5230 5232 5233 5235 5239 5242 5246 5249 5253 5258 5261 5263 5266 5270 5273 5273 5276 5277 5278 5278 5278 5276 5273 5271 5267 5263 5258 5252
5306 5297 5291 5284 5276 5279 5277 5277 5276 5271 5263 5262 5258 5257 5260 5251 5231 5225 5223 5218 5219 5218 5216 5214 5213 5211 5216 5217 5221 5223 5224 5227 5231 5238 5244 5250 5254 5254 5251 5253 5256 5259 5261 5262 5261 5263 5264 5264 5262 5260 5256 5252 5246 5240
5294 5283 5286 5273 5267 5276 5276 5268 5265 5261 5251 5248 5247 5248 5246 5225 5210 5206 5205 5205 5203 5199 5196 5194 5193 5193 5194 5196 5200 5205 5209 5213 5216 5220 5227 5233 5235 5234 5235 5237 5240 5242 5244 5246 5246 5245 5246 5247 5246 5243 5241 5236 5232 5227
5273 5274 5276 5273 5271 5274 5263 5246 5240 5236 5233 5233 5227 5225 5227 5212 5199 5190 5186 5184 5183 5183 5181 5179 5178 5179 5179 5179 5181 5185 5190 5199 5200 5203 5207 5212 5217 5220 5222 5222 5224 5226 5229 5230 5231 5232 5232 5233 5232 5230 5227 5223 5219 5214
5269 5264 5256 5263 5265 5259 5244 5240 5237 5230 5226 5222 5222 5214 5210 5207 5196 5183 5170 5169 5170 5169 5166 5164 5164 5166 5164 5165 5166 5169 5171 5176 5184 5192 5196 5200 5206 5207 5208 5208 5209 5212 5214 5216 5217 5217 5217 5217 5216 5213 5209 5205 5202 5198
5254 5242 5238 5237 5245 5245 5241 5227 5235 5222 5215 5214 5208 5195 5190 5191 5184 5167 5158 5154 5152 5151 5151 5150 5152 5153 5154 5154 5157 5159 5162 5168 5173 5178 5182 5186 5191 5194 5195 5196 5197 5199 5201 5202 5202 5202 5201 5200 5198 5195 5191 5187 5183 5179